Location: Fatehalanka
(16.3139°N, 80.8379°E)
Time: 10:17:39
(UTC+00:00)

Exosat Rocket - Pass Details

Date: 14 May 2026
Orbit: 760 x 2513 km, 72.3° (Epoch: 5 June)

Event Time Altitude Azimuth Distance (km) Brightness Sun altitude
Exits shadow 23:22:02 11° 224° (SW) 2,494 5.6 -10.7°
Maximum altitude 23:26:47 32° 286° (WNW) 1,327 4.4 -9.7°
Drops below altitude 10° 23:31:14 10° 350° (N) 2,286 6.1 -8.7°
Sets 23:33:45 0° 1° (N) 3,227 7.1 -8.1°
